GSAT0211 (PRN E02)

Last updated on Jan. 22, 2021, 6:27 a.m. UTC

1 41549U 16030A   21021.11350665 -.00000006  00000-0  00000-0 0  9993
2 41549  56.1259 275.9808 0004570 340.0358  20.0117  1.70474555 29034
UTC
Height (km)
Latitude
Longitude
Inclination
Orbital Period
UTC large
Height (km)
Speed (km/s)
/
Latitude / Longitude
Inclination (degrees)
Orbital Period (minutes)
Azimuth
Elevation
Range (km)
Doppler Factor
iOS Compass Heading
iOS Angle

Next 30 passes for location: Hong Kong

Rise time Rise Azimuth (degrees) Set time Set Azimuth (degrees) Duration Max altitude (degrees)

No matching passes for this satellites